User: anonymous   Login
Location: Unspecified
(0.0000°N, 0.0000°E)
Time: 22:46:08
(UTC+00:00)
Language:

SAUDISAT 1B - Orbit

View from above orbital plane
View from above orbital plane
View from above satellite
View from above satellite

Ground track
Ground track

The orbit data is extracted from the following two-line orbital elements,

1 26549U 00057E   17113.91227980 +.00000247 +00000-0 +47742-4 0  9990
2 26549 064.5525 289.3271 0050982 234.6538 124.9798 14.83347039895387
Epoch (UTC): 23 April 2017 21:53:40
Eccentricity: 0.0050982
inclination: 64.5525°
perigee height: 583 km
apogee height: 654 km
right ascension of ascending node: 289.3271°
argument of perigee: 234.6538°
revolutions per day: 14.83347039
mean anomaly at epoch: 124.9798°
orbit number at epoch: 89538

The dashed part of the orbit path shows where the satellite is in the earth's shadow,  

DLR